EW5236 Weather Reports


time (UTC)temp
C
wind
direction
speed
KPH
gust
KPH
rain 1hr
cm
rain 24hr
cm
rain mn
cm
humidity
%
barometer
mb
20260506111547 11 96 6.4 17.7 0.00 0.00 0.00 61 1009.7
20260506110047 11 98 4.8 19.3 0.00 0.00 0.00 64 1009.7
20260506104607 11 66 3.2 12.9 0.00 0.00 0.00 68 1009.5
20260506103042 11 86 3.2 24.1 0.00 0.00 0.00 65 1009.6
20260506101541 11 71 6.4 29.0 0.00 0.00 0.00 62 1009.6
20260506100043 11 88 9.7 30.6 0.00 0.00 0.00 57 1009.5
20260506094538 11 94 6.4 20.9 0.00 0.00 0.00 59 1009.4
20260506093035 11 67 8.0 29.0 0.00 0.00 0.00 61 1009.3
20260506091534 11 39 3.2 12.9 0.00 0.00 0.00 65 1009.3
20260506090040 11 123 1.6 12.9 0.00 0.00 0.00 68 1009.2
20260506084528 11 111 6.4 19.3 0.00 0.00 0.00 70 1009.1
20260506083035 10 59 4.8 17.7 0.00 0.00 0.00 73 1009.1
20260506081520 10 54 4.8 16.1 0.00 0.00 0.00 74 1009.0
20260506073015 10 113 0.0 9.7 0.00 0.00 0.00 78 1008.8
20260506071513 10 58 3.2 8.0 0.00 0.00 0.00 78 1008.8
20260506061504 9 46 3.2 9.7 0.00 0.00 0.00 80 1008.5
20260506044608 8 83 0.0 6.4 0.00 0.00 0.00 84 1008.2
20260506043056 8 327 1.6 4.8 0.00 0.00 0.00 84 1008.2
20260506041553 8 331 0.0 6.4 0.00 0.00 0.00 84 1008.3
20260506040051 8 5 0.0 8.0 0.00 0.00 0.00 84 1008.3
20260506034549 8 360 1.6 6.4 0.00 0.00 0.00 84 1008.4
20260506033046 9 326 1.6 8.0 0.00 0.00 0.00 84 1008.4
20260506031547 9 201 0.0 4.8 0.00 0.00 0.00 84 1008.5
20260506030041 9 296 0.0 6.4 0.00 0.00 0.00 84 1008.7
20260506024545 9 346 0.0 4.8 0.00 0.00 0.00 83 1008.8
20260506023040 9 355 1.6 6.4 0.00 0.00 0.00 83 1008.9
20260506021552 9 23 1.6 4.8 0.00 0.00 0.00 82 1008.9
20260506020037 9 75 0.0 8.0 0.00 0.00 0.00 82 1009.0
20260506014536 9 29 0.0 6.4 0.00 0.00 0.00 82 1009.2
20260506013034 9 327 0.0 4.8 0.00 0.00 0.00 81 1009.2
20260506011534 9 328 0.0 6.4 0.00 0.00 0.00 81 1009.2
20260506010044 9 329 1.6 12.9 0.00 0.00 0.00 82 1009.3
20260506004530 9 119 1.6 4.8 0.00 0.00 0.00 82 1009.5
20260506003028 9 344 0.0 6.4 0.00 0.00 0.00 81 1009.6
20260506001526 9 51 1.6 9.7 0.00 0.00 0.00 80 1009.8
20260506000025 9 84 1.6 12.9 0.00 0.00 0.00 79 1009.9
20260505234522 9 326 1.6 8.0 0.00 0.00 0.00 78 1009.9
20260505233021 9 86 0.0 11.3 0.00 0.00 0.00 78 1010.0
20260505231527 9 102 3.2 8.0 0.00 0.00 0.00 78 1010.0
20260505230019 9 58 1.6 11.3 0.00 0.00 0.00 78 1010.1
20260505224526 9 54 1.6 14.5 0.00 0.00 0.00 78 1010.3
20260505223017 10 95 3.2 9.7 0.00 0.00 0.00 79 1010.3
20260505221513 10 28 3.2 11.3 0.00 0.00 0.00 79 1010.4
20260505220009 10 80 0.0 8.0 0.00 0.00 0.00 79 1010.4
20260505214508 10 97 0.0 12.9 0.00 0.00 0.00 80 1010.5
20260505213007 10 50 0.0 9.7 0.00 0.00 0.00 80 1010.5
20260505211520 10 50 1.6 6.4 0.00 0.00 0.00 80 1010.6
20260505210006 10 16 1.6 11.3 0.00 0.00 0.00 80 1010.7
20260505204505 10 298 3.2 8.0 0.00 0.00 0.00 80 1010.8
20260505203005 10 323 1.6 8.0 0.00 0.00 0.00 79 1011.0
20260505201507 10 44 1.6 8.0 0.00 0.00 0.00 79 1011.0
20260505200004 10 71 1.6 8.0 0.00 0.00 0.00 79 1010.9
20260505194506 10 70 1.6 11.3 0.00 0.00 0.00 79 1010.8
20260505193003 10 355 3.2 6.4 0.00 0.00 0.00 78 1010.7
20260505191503 10 65 1.6 6.4 0.00 0.00 0.00 78 1010.7
20260505190100 10 30 1.6 8.0 0.00 0.00 0.00 77 1010.4
20260505184603 10 80 1.6 9.7 0.00 0.00 0.00 77 1010.4
20260505183013 10 32 0.0 8.0 0.00 0.00 0.00 77 1010.3
20260505181539 11 90 1.6 6.4 0.00 0.00 0.00 77 1010.4
20260505180036 11 83 1.6 8.0 0.00 0.00 0.00 78 1010.4
20260505174536 11 23 3.2 14.5 0.00 0.00 0.00 77 1010.4
20260505173034 11 74 3.2 9.7 0.00 0.00 0.00 77 1010.4
20260505171534 11 29 3.2 9.7 0.00 0.00 0.00 77 1010.6
20260505170037 11 355 1.6 14.5 0.00 0.00 0.00 77 1010.6
20260505164535 11 117 1.6 16.1 0.00 0.00 0.00 77 1010.6
20260505163033 11 78 4.8 9.7 0.00 0.00 0.00 75 1010.6
20260505161531 11 90 3.2 12.9 0.00 0.00 0.00 76 1010.6
20260505153028 11 286 0.0 8.0 0.00 0.00 0.00 76 1010.8
20260505151534 11 323 3.2 9.7 0.00 0.00 0.00 75 1010.8
20260505124518 12 43 6.4 19.3 0.00 0.00 0.00 72 1011.5
20260505123013 11 26 1.6 8.0 0.00 0.00 0.00 73 1011.7
20260505121513 11 69 3.2 12.9 0.00 0.00 0.00 74 1011.7
20260505120015 11 93 4.8 17.7 0.00 0.00 0.00 74 1011.7
20260505114509 11 281 1.6 11.3 0.00 0.00 0.00 74 1011.8
20260505113007 11 18 0.0 9.7 0.00 0.00 0.00 75 1011.8